Overview Statistics Trail Chart Weather Telemetry Raw packets
 

This is the latest recevied weather packets stored in our database for station/object KI5PFS. If no packets are shown the sender has not sent any weather packets the latest 10 day(s).

<< 44 45 46 47 48 49 50 >>
Time Temp. Humidity Pressure Rain* Wind** Luminosity Snow
1787947805 37.78° C 35% 1013 hPa 0 mm - - -
1787947213 37.78° C 36% 1013.2 hPa 0 mm - - -
1787946603 37.22° C 38% 1013.3 hPa 0 mm - - -
1787946004 37.22° C 39% 1013.4 hPa 0 mm - - -
1787945404 37.22° C 39% 1013.5 hPa 0 mm - - -
1787944804 37.22° C 40% 1013.5 hPa 0 mm - - -
1787944204 37.22° C 40% 1013.7 hPa 0 mm - - -
1787943603 37.22° C 39% 1013.8 hPa 0 mm - - -
1787943003 37.22° C 38% 1013.9 hPa 0 mm - - -
1787942403 37.22° C 41% 1014 hPa 0 mm - - -
1787941803 37.22° C 40% 1014 hPa 0 mm - - -
1787941203 37.22° C 42% 1014.1 hPa 0 mm - - -
1787940604 37.22° C 44% 1014.3 hPa 0 mm - - -
1787940003 36.11° C 44% 1014.3 hPa 0 mm - - -
1787939403 36.11° C 46% 1014.5 hPa 0 mm - - -
1787938803 36.11° C 43% 1014.8 hPa 0 mm - - -
1787938203 36.11° C 46% 1014.9 hPa 0 mm - - -
1787937603 36.11° C 46% 1015 hPa 0 mm - - -
1787937003 35° C 51% 1015 hPa 0 mm - - -
1787936404 35° C 49% 1015.1 hPa 0 mm - - -
1787935803 35° C 46% 1015.1 hPa 0 mm - - -
1787935203 33.89° C 49% 1015.1 hPa 0 mm - - -
1787934603 33.89° C 50% 1015.2 hPa 0 mm - - -
1787934003 33.89° C 54% 1015.2 hPa 0 mm - - -
1787933403 33.89° C 55% 1015.2 hPa 0 mm - - -

* Rain latest hour (hover to see other rain measurements)
** Current wind speed in m/s (hover to see current wind gust speed)